Defiance, OH

7:59 AM EDT on July 29, 2017 (GMT -0400)
Defiance Memorial

Weather History for KDFI - November, 2014

Change the Weather History Date:

Friday, November 21, 2014

  Actual Average Record
Temperature  
Mean Temperature 18 °F -  
Max Temperature 27 °F 46 °F 71 °F (1942)
Min Temperature 10 °F 30 °F 10 °F (2014)
Degree Days  
Heating Degree Days 46    
Moisture  
Dew Point 10 °F    
Average Humidity 65    
Maximum Humidity 77    
Minimum Humidity 53    
Precipitation  
Precipitation 0.00 in - - ()
Sea Level Pressure  
Sea Level Pressure 30.45 in    
Wind  
Wind Speed 4 mph (SSW)    
Max Wind Speed 10 mph    
Max Gust Speed -    
Visibility 10 miles    
Events      
Averages and records for this station are not official NWS values.
T = Trace of Precipitation, MM = Missing Value Source: NWS Daily Summary

Daily Weather History Graph

Daily Weather History Graph

Search for Another Location

Airport or City:

Trip Planner

Search our weather history database for the weather conditions in past years. The results will help you decide how hot, cold, wet, or windy it might be!

Date:

Astronomy

Nov. 21, 2014 Rise Set
Actual Time 7:33 AM EST 5:13 PM EST
Civil Twilight 7:03 AM EST 5:43 PM EST
Nautical Twilight 6:29 AM EST 6:17 PM EST
Astronomical Twilight 5:56 AM EST 6:50 PM EST
Moon 6:26 AM EST (11/21) 4:58 PM EST (11/21)
Length of Visible Light 10h 40m
Length of Day
9h 40m
Waning Crescent, 1% of the Moon is Illuminated
Nov 21
Waning Crescent
Nov 22
New
Nov 29
First Quarter
Dec 6
Full
Dec 14
Last Quarter

Hourly Weather History & Observations

Time (EST) Temp. Windchill Dew Point Humidity Pressure Visibility Wind Dir Wind Speed Gust Speed Precip Events Conditions
12:53 AM 16.0 °F 10.4 °F 6.1 °F 65% 30.27 in 10.0 mi WSW 3.5 mph - N/A   Clear
1:53 AM 14.0 °F 8.2 °F 5.0 °F 67% 30.31 in 10.0 mi WSW 3.5 mph - N/A   Clear
2:53 AM 16.0 °F 8.8 °F 6.1 °F 65% 30.35 in 10.0 mi West 4.6 mph - N/A   Scattered Clouds
3:53 AM 16.0 °F 8.8 °F 6.1 °F 65% 30.37 in 10.0 mi West 4.6 mph - N/A   Mostly Cloudy
4:53 AM 15.1 °F 7.7 °F 7.0 °F 70% 30.40 in 10.0 mi WSW 4.6 mph - N/A   Mostly Cloudy
5:53 AM 12.9 °F 6.9 °F 6.1 °F 74% 30.42 in 10.0 mi SW 3.5 mph - N/A   Clear
6:53 AM 10.9 °F - 5.0 °F 77% 30.45 in 10.0 mi Calm Calm - N/A   Clear
7:53 AM 10.9 °F - 5.0 °F 77% 30.48 in 10.0 mi Calm Calm - N/A   Clear
8:53 AM 15.1 °F 7.7 °F 8.1 °F 74% 30.51 in 10.0 mi SW 4.6 mph - N/A   Clear
9:53 AM 19.0 °F 12.3 °F 10.0 °F 68% 30.52 in 10.0 mi WSW 4.6 mph - N/A   Clear
10:53 AM 23.0 °F 17.0 °F 12.9 °F 65% 30.54 in 10.0 mi WSW 4.6 mph - N/A   Clear
11:53 AM 25.0 °F 18.1 °F 12.0 °F 58% 30.55 in 10.0 mi West 5.8 mph - N/A   Clear
12:53 PM 27.0 °F 21.6 °F 12.0 °F 53% 30.53 in 10.0 mi Variable 4.6 mph - N/A   Clear
1:53 PM 27.0 °F 18.0 °F 14.0 °F 58% 30.51 in 10.0 mi South 9.2 mph - N/A   Clear
2:53 PM 27.0 °F 17.3 °F 12.9 °F 56% 30.50 in 10.0 mi South 10.4 mph - N/A   Clear
3:53 PM 27.0 °F 18.0 °F 12.0 °F 53% 30.49 in 10.0 mi South 9.2 mph - N/A   Clear
4:53 PM 26.1 °F 19.4 °F 12.0 °F 55% 30.49 in 10.0 mi South 5.8 mph - N/A   Clear
5:53 PM 23.0 °F 17.0 °F 12.0 °F 63% 30.50 in 10.0 mi South 4.6 mph - N/A   Clear
6:53 PM 23.0 °F 18.4 °F 12.0 °F 63% 30.47 in 10.0 mi SSE 3.5 mph - N/A   Clear
7:53 PM 21.9 °F 17.2 °F 12.0 °F 66% 30.45 in 10.0 mi SSE 3.5 mph - N/A   Clear
8:53 PM 19.9 °F 13.4 °F 10.9 °F 68% 30.44 in 10.0 mi South 4.6 mph - N/A   Clear
9:53 PM 21.0 °F 11.4 °F 10.9 °F 65% 30.42 in 10.0 mi South 8.1 mph - N/A   Clear
10:53 PM 19.9 °F 11.1 °F 10.9 °F 68% 30.40 in 10.0 mi South 6.9 mph - N/A   Clear
11:53 PM 19.9 °F 12.1 °F 10.9 °F 68% 30.38 in 10.0 mi South 5.8 mph - N/A   Clear